| time (UTC) | temp F | wind direction | speed MPH | gust MPH | rain 1hr in | rain 24hr in | rain mn in | humidity % | barometer mb |
| 20260904144033 | 82 | 134 | 9.0 | 14.0 | 0.00 | 0.00 | 0.00 | 79 | 1015.1 |
| 20260904143532 | 82 | 182 | 7.0 | 13.0 | 0.00 | 0.00 | 0.00 | 80 | 1015.0 |
| 20260904143055 | 82 | 149 | 6.0 | 12.0 | 0.00 | 0.00 | 0.00 | 80 | 1015.1 |
| 20260904142535 | 82 | 131 | 6.0 | 13.0 | 0.00 | 0.00 | 0.00 | 82 | 1015.1 |
| 20260904142033 | 81 | 172 | 6.0 | 13.0 | 0.00 | 0.00 | 0.00 | 82 | 1015.2 |
| 20260904141605 | 81 | 139 | 7.0 | 11.0 | 0.00 | 0.00 | 0.00 | 82 | 1015.1 |
| 20260904141033 | 81 | 187 | 7.0 | 11.0 | 0.00 | 0.00 | 0.00 | 84 | 1015.1 |
| 20260904140536 | 80 | 158 | 7.0 | 11.0 | 0.00 | 0.00 | 0.00 | 86 | 1015.1 |
| 20260904140111 | 79 | 125 | 5.0 | 10.0 | 0.00 | 0.00 | 0.00 | 88 | 1015.1 |
| 20260904135537 | 79 | 151 | 4.0 | 9.0 | 0.00 | 0.00 | 0.00 | 88 | 1015.0 |
| 20260904135033 | 79 | 133 | 4.0 | 11.0 | 0.00 | 0.00 | 0.00 | 88 | 1015.0 |
| 20260904134613 | 79 | 124 | 4.0 | 11.0 | 0.00 | 0.00 | 0.00 | 88 | 1014.9 |
| 20260904134103 | 79 | 164 | 4.0 | 9.0 | 0.00 | 0.00 | 0.00 | 88 | 1014.9 |
| 20260904133533 | 79 | 109 | 5.0 | 9.0 | 0.00 | 0.00 | 0.00 | 88 | 1014.8 |
| 20260904133059 | 79 | 126 | 4.0 | 9.0 | 0.00 | 0.00 | 0.00 | 88 | 1014.8 |
| 20260904132537 | 79 | 104 | 5.0 | 9.0 | 0.00 | 0.00 | 0.00 | 88 | 1014.7 |
| 20260904132034 | 78 | 137 | 5.0 | 9.0 | 0.00 | 0.00 | 0.00 | 88 | 1014.6 |
| 20260904131559 | 78 | 126 | 4.0 | 9.0 | 0.00 | 0.00 | 0.00 | 88 | 1014.6 |
| 20260904131033 | 78 | 145 | 2.0 | 9.0 | 0.00 | 0.00 | 0.00 | 88 | 1014.6 |
| 20260904130533 | 78 | 152 | 4.0 | 9.0 | 0.00 | 0.00 | 0.00 | 88 | 1014.5 |
| 20260904130050 | 78 | 106 | 3.0 | 9.0 | 0.00 | 0.00 | 0.00 | 88 | 1014.3 |
| 20260904125537 | 78 | 122 | 4.0 | 9.0 | 0.00 | 0.00 | 0.00 | 88 | 1014.2 |
| 20260904125036 | 78 | 102 | 3.0 | 9.0 | 0.00 | 0.00 | 0.00 | 88 | 1014.1 |
| 20260904124608 | 78 | 147 | 3.0 | 8.0 | 0.00 | 0.00 | 0.00 | 88 | 1014.1 |
| 20260904124034 | 78 | 152 | 4.0 | 9.0 | 0.00 | 0.00 | 0.00 | 88 | 1014.1 |
| 20260904123533 | 78 | 113 | 4.0 | 9.0 | 0.00 | 0.00 | 0.00 | 88 | 1014.0 |
| 20260904123100 | 78 | 85 | 5.0 | 9.0 | 0.00 | 0.00 | 0.00 | 88 | 1013.9 |
| 20260904122532 | 78 | 106 | 2.0 | 8.0 | 0.00 | 0.00 | 0.00 | 88 | 1013.9 |
| 20260904122037 | 78 | 121 | 3.0 | 8.0 | 0.00 | 0.00 | 0.00 | 88 | 1013.9 |
| 20260904121558 | 78 | 109 | 2.0 | 7.0 | 0.00 | 0.00 | 0.00 | 87 | 1013.9 |
| 20260904121033 | 78 | 122 | 3.0 | 8.0 | 0.00 | 0.00 | 0.00 | 87 | 1013.9 |
| 20260904120536 | 78 | 138 | 3.0 | 8.0 | 0.00 | 0.00 | 0.00 | 87 | 1013.8 |
| 20260904115537 | 78 | 133 | 2.0 | 5.0 | 0.00 | 0.00 | 0.00 | 86 | 1013.7 |
| 20260904115033 | 78 | 123 | 1.0 | 5.0 | 0.00 | 0.00 | 0.00 | 86 | 1013.6 |
| 20260904114602 | 78 | 127 | 2.0 | 5.0 | 0.00 | 0.00 | 0.00 | 86 | 1013.6 |
| 20260904114034 | 78 | 146 | 3.0 | 6.0 | 0.00 | 0.00 | 0.00 | 85 | 1013.6 |
| 20260904113532 | 78 | 124 | 2.0 | 6.0 | 0.00 | 0.00 | 0.00 | 85 | 1013.5 |
| 20260904113057 | 78 | 120 | 1.0 | 3.0 | 0.00 | 0.00 | 0.00 | 85 | 1013.5 |
| 20260904112532 | 78 | 120 | 1.0 | 3.0 | 0.00 | 0.00 | 0.00 | 85 | 1013.5 |
| 20260904112037 | 78 | 0 | 1.0 | 2.0 | 0.00 | 0.00 | 0.00 | 85 | 1013.5 |
| 20260904111559 | 78 | 120 | 0.0 | 3.0 | 0.00 | 0.00 | 0.00 | 84 | 1013.5 |
| 20260904111032 | 78 | 120 | 0.0 | 3.0 | 0.00 | 0.00 | 0.00 | 84 | 1013.4 |
| 20260904110533 | 78 | 120 | 0.0 | 2.0 | 0.00 | 0.00 | 0.00 | 84 | 1013.4 |
| 20260904110058 | 78 | 0 | 0.0 | 3.0 | 0.00 | 0.00 | 0.00 | 84 | 1013.3 |
| 20260904105533 | 78 | 120 | 0.0 | 3.0 | 0.00 | 0.00 | 0.00 | 84 | 1013.4 |
| 20260904105033 | 79 | 120 | 1.0 | 3.0 | 0.00 | 0.00 | 0.00 | 84 | 1013.3 |
| 20260904104603 | 79 | 120 | 1.0 | 3.0 | 0.00 | 0.00 | 0.00 | 84 | 1013.3 |
| 20260904104033 | 79 | 120 | 1.0 | 3.0 | 0.00 | 0.00 | 0.00 | 84 | 1013.2 |
| 20260904103534 | 79 | 0 | 1.0 | 4.0 | 0.00 | 0.00 | 0.00 | 84 | 1013.2 |
| 20260904103058 | 79 | 130 | 1.0 | 4.0 | 0.00 | 0.00 | 0.00 | 84 | 1013.2 |
| 20260904102536 | 79 | 0 | 1.0 | 7.0 | 0.00 | 0.00 | 0.00 | 84 | 1013.3 |
| 20260904102034 | 79 | 0 | 1.0 | 7.0 | 0.00 | 0.00 | 0.00 | 84 | 1013.2 |
| 20260904101556 | 79 | 125 | 3.0 | 7.0 | 0.00 | 0.00 | 0.00 | 84 | 1013.4 |
| 20260904101035 | 79 | 155 | 4.0 | 7.0 | 0.00 | 0.00 | 0.00 | 84 | 1013.4 |
| 20260904100533 | 79 | 187 | 3.0 | 7.0 | 0.00 | 0.00 | 0.00 | 84 | 1013.4 |
| 20260904095532 | 79 | 117 | 2.0 | 12.0 | 0.00 | 0.00 | 0.00 | 84 | 1013.2 |
| 20260904095033 | 79 | 123 | 4.0 | 12.0 | 0.00 | 0.00 | 0.00 | 84 | 1013.2 |
| 20260904094611 | 79 | 166 | 3.0 | 10.0 | 0.00 | 0.00 | 0.00 | 84 | 1013.2 |
| 20260904094033 | 79 | 145 | 4.0 | 10.0 | 0.00 | 0.00 | 0.00 | 84 | 1013.3 |
| 20260904093534 | 79 | 163 | 5.0 | 10.0 | 0.00 | 0.00 | 0.00 | 83 | 1013.2 |
| 20260904093100 | 79 | 151 | 4.0 | 9.0 | 0.00 | 0.00 | 0.00 | 83 | 1013.3 |
| 20260904092533 | 79 | 151 | 3.0 | 7.0 | 0.00 | 0.00 | 0.00 | 83 | 1013.3 |
| 20260904092033 | 79 | 147 | 4.0 | 10.0 | 0.00 | 0.00 | 0.00 | 83 | 1013.2 |
| 20260904091552 | 79 | 157 | 2.0 | 10.0 | 0.00 | 0.00 | 0.00 | 83 | 1013.4 |
| 20260904091034 | 79 | 156 | 4.0 | 10.0 | 0.00 | 0.00 | 0.00 | 83 | 1013.3 |
| 20260904090532 | 79 | 127 | 3.0 | 9.0 | 0.00 | 0.00 | 0.00 | 83 | 1013.2 |
| 20260904090107 | 79 | 145 | 5.0 | 9.0 | 0.00 | 0.00 | 0.00 | 83 | 1013.2 |
| 20260904085533 | 79 | 191 | 4.0 | 10.0 | 0.00 | 0.00 | 0.00 | 83 | 1013.2 |
| 20260904085034 | 79 | 135 | 4.0 | 10.0 | 0.00 | 0.00 | 0.00 | 83 | 1013.3 |
| 20260904084600 | 79 | 162 | 6.0 | 10.0 | 0.00 | 0.00 | 0.00 | 83 | 1013.3 |
| 20260904084033 | 79 | 156 | 4.0 | 10.0 | 0.00 | 0.00 | 0.00 | 83 | 1013.4 |
| 20260904083535 | 79 | 169 | 3.0 | 15.0 | 0.00 | 0.00 | 0.00 | 83 | 1013.4 |
| 20260904083134 | 79 | 148 | 6.0 | 15.0 | 0.00 | 0.00 | 0.00 | 83 | 1013.3 |
| 20260904082535 | 79 | 136 | 6.0 | 15.0 | 0.00 | 0.00 | 0.00 | 83 | 1013.3 |
| 20260904082033 | 79 | 141 | 3.0 | 9.0 | 0.00 | 0.00 | 0.00 | 83 | 1013.3 |
| 20260904081608 | 79 | 164 | 3.0 | 9.0 | 0.00 | 0.00 | 0.00 | 83 | 1013.4 |
| 20260904081034 | 79 | 125 | 5.0 | 9.0 | 0.00 | 0.00 | 0.00 | 83 | 1013.4 |
| 20260904080533 | 79 | 162 | 4.0 | 7.0 | 0.00 | 0.00 | 0.00 | 83 | 1013.5 |
| 20260904080057 | 79 | 102 | 2.0 | 9.0 | 0.00 | 0.00 | 0.00 | 83 | 1013.5 |
| 20260904075533 | 79 | 135 | 4.0 | 9.0 | 0.00 | 0.00 | 0.00 | 82 | 1013.5 |
| 20260904075034 | 79 | 116 | 3.0 | 8.0 | 0.00 | 0.00 | 0.00 | 82 | 1013.6 |
| 20260904074554 | 79 | 128 | 1.0 | 7.0 | 0.00 | 0.00 | 0.00 | 82 | 1013.6 |
| 20260904074033 | 79 | 141 | 1.0 | 7.0 | 0.00 | 0.00 | 0.00 | 82 | 1013.7 |
| 20260904073533 | 79 | 141 | 2.0 | 8.0 | 0.00 | 0.00 | 0.00 | 81 | 1013.6 |
| 20260904073057 | 79 | 153 | 2.0 | 8.0 | 0.00 | 0.00 | 0.00 | 81 | 1013.7 |
| 20260904072532 | 79 | 128 | 4.0 | 9.0 | 0.00 | 0.00 | 0.00 | 81 | 1013.7 |
| 20260904072035 | 79 | 135 | 3.0 | 9.0 | 0.00 | 0.00 | 0.00 | 81 | 1013.6 |
| 20260904071620 | 79 | 189 | 5.0 | 9.0 | 0.00 | 0.00 | 0.00 | 80 | 1013.7 |
| 20260904071035 | 80 | 145 | 3.0 | 10.0 | 0.00 | 0.00 | 0.00 | 80 | 1013.8 |
| 20260904070533 | 80 | 149 | 3.0 | 10.0 | 0.00 | 0.00 | 0.00 | 80 | 1013.7 |
| 20260904070115 | 80 | 164 | 4.0 | 11.0 | 0.00 | 0.00 | 0.00 | 80 | 1013.7 |
| 20260904065533 | 80 | 155 | 3.0 | 13.0 | 0.00 | 0.00 | 0.00 | 79 | 1013.7 |
| 20260904065034 | 80 | 137 | 5.0 | 13.0 | 0.00 | 0.00 | 0.00 | 79 | 1013.7 |
| 20260904064555 | 80 | 143 | 8.0 | 16.0 | 0.00 | 0.00 | 0.00 | 79 | 1013.9 |
| 20260904064033 | 80 | 162 | 8.0 | 16.0 | 0.00 | 0.00 | 0.00 | 79 | 1013.8 |
| 20260904063533 | 80 | 155 | 9.0 | 15.0 | 0.00 | 0.00 | 0.00 | 79 | 1013.7 |
| 20260904063100 | 80 | 139 | 6.0 | 15.0 | 0.00 | 0.00 | 0.00 | 78 | 1013.7 |
| 20260904062534 | 80 | 147 | 8.0 | 15.0 | 0.00 | 0.00 | 0.00 | 78 | 1013.9 |
| 20260904062032 | 80 | 139 | 8.0 | 12.0 | 0.00 | 0.00 | 0.00 | 77 | 1013.8 |
| 20260904061557 | 80 | 153 | 8.0 | 12.0 | 0.00 | 0.00 | 0.00 | 77 | 1013.9 |
| 20260904061032 | 81 | 149 | 5.0 | 11.0 | 0.00 | 0.00 | 0.00 | 76 | 1014.0 |
| 20260904060536 | 81 | 143 | 5.0 | 11.0 | 0.00 | 0.00 | 0.00 | 76 | 1014.1 |
| 20260904060057 | 81 | 143 | 6.0 | 11.0 | 0.00 | 0.00 | 0.00 | 75 | 1014.2 |
| 20260904055533 | 81 | 110 | 4.0 | 11.0 | 0.00 | 0.00 | 0.00 | 75 | 1014.2 |
| 20260904055032 | 81 | 134 | 5.0 | 15.0 | 0.00 | 0.00 | 0.00 | 75 | 1014.3 |
| 20260904054601 | 81 | 135 | 7.0 | 15.0 | 0.00 | 0.00 | 0.00 | 75 | 1014.1 |
| 20260904054035 | 81 | 145 | 6.0 | 16.0 | 0.00 | 0.00 | 0.00 | 74 | 1014.1 |
| 20260904053533 | 81 | 119 | 8.0 | 17.0 | 0.00 | 0.00 | 0.00 | 74 | 1014.1 |
| 20260904053102 | 81 | 129 | 10.0 | 20.0 | 0.00 | 0.00 | 0.00 | 73 | 1014.0 |
| 20260904052533 | 82 | 126 | 7.0 | 22.0 | 0.00 | 0.00 | 0.00 | 73 | 1014.1 |
| 20260904052033 | 82 | 126 | 11.0 | 22.0 | 0.00 | 0.00 | 0.00 | 73 | 1013.9 |
| 20260904051559 | 82 | 135 | 10.0 | 19.0 | 0.00 | 0.00 | 0.00 | 73 | 1013.9 |
| 20260904051032 | 82 | 147 | 7.0 | 15.0 | 0.00 | 0.00 | 0.00 | 73 | 1013.8 |
| 20260904050533 | 82 | 164 | 6.0 | 15.0 | 0.00 | 0.00 | 0.00 | 73 | 1013.7 |
| 20260904050057 | 83 | 157 | 7.0 | 18.0 | 0.00 | 0.00 | 0.00 | 72 | 1013.7 |
| 20260904045533 | 83 | 130 | 8.0 | 18.0 | 0.00 | 0.00 | 0.00 | 72 | 1013.6 |
| 20260904045033 | 83 | 158 | 10.0 | 18.0 | 0.00 | 0.00 | 0.00 | 71 | 1013.5 |
| 20260904044600 | 83 | 146 | 9.0 | 19.0 | 0.00 | 0.00 | 0.00 | 70 | 1013.5 |
| 20260904044032 | 83 | 168 | 9.0 | 19.0 | 0.00 | 0.00 | 0.00 | 69 | 1013.5 |
| 20260904043533 | 83 | 178 | 8.0 | 18.0 | 0.00 | 0.00 | 0.00 | 69 | 1013.6 |
| 20260904043102 | 83 | 148 | 10.0 | 18.0 | 0.00 | 0.00 | 0.00 | 68 | 1013.5 |
| 20260904042536 | 84 | 151 | 9.0 | 19.0 | 0.00 | 0.00 | 0.00 | 68 | 1013.4 |
| 20260904042031 | 84 | 157 | 11.0 | 22.0 | 0.00 | 0.00 | 0.00 | 67 | 1013.4 |
| 20260904041601 | 84 | 167 | 10.0 | 22.0 | 0.00 | 0.00 | 0.00 | 66 | 1013.2 |
| 20260904041034 | 84 | 174 | 12.0 | 25.0 | 0.00 | 0.00 | 0.00 | 65 | 1013.2 |
| 20260904040532 | 85 | 164 | 11.0 | 25.0 | 0.00 | 0.00 | 0.00 | 64 | 1013.3 |
| 20260904040109 | 85 | 145 | 11.0 | 24.0 | 0.00 | 0.00 | 0.00 | 63 | 1013.4 |
| 20260904035535 | 85 | 171 | 14.0 | 24.0 | 0.00 | 0.00 | 0.00 | 62 | 1013.4 |
| 20260904035034 | 85 | 162 | 9.0 | 21.0 | 0.00 | 0.00 | 0.00 | 62 | 1013.3 |
| 20260904034556 | 85 | 160 | 12.0 | 24.0 | 0.00 | 0.00 | 0.00 | 61 | 1013.4 |
| 20260904034034 | 86 | 122 | 11.0 | 24.0 | 0.00 | 0.00 | 0.00 | 60 | 1013.3 |
| 20260904033534 | 86 | 120 | 11.0 | 25.0 | 0.00 | 0.00 | 0.00 | 60 | 1013.2 |
| 20260904033053 | 86 | 127 | 14.0 | 25.0 | 0.00 | 0.00 | 0.00 | 59 | 1013.2 |
| 20260904032533 | 86 | 121 | 13.0 | 23.0 | 0.00 | 0.00 | 0.00 | 58 | 1013.2 |
| 20260904032032 | 87 | 137 | 9.0 | 18.0 | 0.00 | 0.00 | 0.00 | 58 | 1013.0 |
| 20260904031609 | 87 | 134 | 12.0 | 20.0 | 0.00 | 0.00 | 0.00 | 57 | 1012.9 |
| 20260904031032 | 87 | 151 | 10.0 | 22.0 | 0.00 | 0.00 | 0.00 | 57 | 1012.8 |
| 20260904030534 | 87 | 141 | 10.0 | 23.0 | 0.00 | 0.00 | 0.00 | 56 | 1012.8 |
| 20260904030057 | 87 | 99 | 11.0 | 23.0 | 0.00 | 0.00 | 0.00 | 56 | 1012.6 |
| 20260904025533 | 87 | 124 | 10.0 | 21.0 | 0.00 | 0.00 | 0.00 | 56 | 1012.5 |
| 20260904025033 | 88 | 143 | 11.0 | 20.0 | 0.00 | 0.00 | 0.00 | 56 | 1012.4 |
| 20260904024559 | 88 | 114 | 12.0 | 23.0 | 0.00 | 0.00 | 0.00 | 56 | 1012.2 |
| 20260904024034 | 88 | 147 | 9.0 | 23.0 | 0.00 | 0.00 | 0.00 | 56 | 1012.1 |
| 20260904023536 | 88 | 165 | 10.0 | 21.0 | 0.00 | 0.00 | 0.00 | 56 | 1011.9 |
| 20260904023051 | 88 | 127 | 9.0 | 21.0 | 0.00 | 0.00 | 0.00 | 56 | 1011.8 |
| 20260904022533 | 88 | 168 | 12.0 | 18.0 | 0.00 | 0.00 | 0.00 | 56 | 1011.8 |
| 20260904022034 | 88 | 162 | 9.0 | 18.0 | 0.00 | 0.00 | 0.00 | 56 | 1011.7 |
| 20260904021557 | 88 | 85 | 9.0 | 17.0 | 0.00 | 0.00 | 0.00 | 55 | 1011.5 |
| 20260904021033 | 89 | 157 | 8.0 | 17.0 | 0.00 | 0.00 | 0.00 | 55 | 1011.4 |
| 20260904020533 | 89 | 106 | 9.0 | 16.0 | 0.00 | 0.00 | 0.00 | 54 | 1011.4 |
| 20260904020058 | 89 | 121 | 10.0 | 17.0 | 0.00 | 0.00 | 0.00 | 53 | 1011.4 |
| 20260904015533 | 90 | 126 | 6.0 | 17.0 | 0.00 | 0.00 | 0.00 | 52 | 1011.3 |
| 20260904015034 | 90 | 88 | 9.0 | 18.0 | 0.00 | 0.00 | 0.00 | 52 | 1011.3 |
| 20260904014557 | 91 | 138 | 7.0 | 19.0 | 0.00 | 0.00 | 0.00 | 51 | 1011.3 |
| 20260904014032 | 91 | 82 | 9.0 | 19.0 | 0.00 | 0.00 | 0.00 | 50 | 1011.2 |
| 20260904013535 | 92 | 126 | 11.0 | 26.0 | 0.00 | 0.00 | 0.00 | 49 | 1011.1 |
| 20260904013058 | 92 | 70 | 11.0 | 26.0 | 0.00 | 0.00 | 0.00 | 48 | 1011.1 |
| 20260904012533 | 93 | 109 | 15.0 | 25.0 | 0.00 | 0.00 | 0.00 | 47 | 1011.0 |
| 20260904012033 | 93 | 108 | 13.0 | 25.0 | 0.00 | 0.00 | 0.00 | 45 | 1010.9 |
| 20260904011559 | 94 | 103 | 2.0 | 7.0 | 0.00 | 0.00 | 0.00 | 41 | 1010.7 |
| 20260904011033 | 94 | 118 | 2.0 | 7.0 | 0.00 | 0.00 | 0.00 | 40 | 1010.4 |
| 20260904010533 | 94 | 124 | 3.0 | 10.0 | 0.00 | 0.00 | 0.00 | 40 | 1010.3 |
| 20260904010054 | 95 | 104 | 5.0 | 10.0 | 0.00 | 0.00 | 0.00 | 39 | 1010.3 |
| 20260904005533 | 95 | 139 | 5.0 | 10.0 | 0.00 | 0.00 | 0.00 | 39 | 1010.3 |
| 20260904005034 | 95 | 120 | 5.0 | 11.0 | 0.00 | 0.00 | 0.00 | 38 | 1010.4 |
| 20260904004605 | 95 | 114 | 5.0 | 12.0 | 0.00 | 0.00 | 0.00 | 38 | 1010.3 |
| 20260904004034 | 96 | 112 | 7.0 | 12.0 | 0.00 | 0.00 | 0.00 | 38 | 1010.1 |
| 20260904003532 | 96 | 100 | 5.0 | 11.0 | 0.00 | 0.00 | 0.00 | 37 | 1010.1 |
| 20260904003059 | 96 | 82 | 5.0 | 16.0 | 0.00 | 0.00 | 0.00 | 37 | 1010.0 |
| 20260904002535 | 96 | 127 | 9.0 | 16.0 | 0.00 | 0.00 | 0.00 | 37 | 1010.0 |
| 20260904002035 | 96 | 130 | 6.0 | 16.0 | 0.00 | 0.00 | 0.00 | 37 | 1010.0 |
| 20260904001555 | 96 | 117 | 9.0 | 16.0 | 0.00 | 0.00 | 0.00 | 37 | 1010.1 |
| 20260904001033 | 97 | 141 | 7.0 | 15.0 | 0.00 | 0.00 | 0.00 | 37 | 1010.1 |
| 20260904000533 | 97 | 118 | 5.0 | 15.0 | 0.00 | 0.00 | 0.00 | 37 | 1010.0 |
| 20260904000106 | 97 | 97 | 8.0 | 16.0 | 0.00 | 0.00 | 0.00 | 37 | 1010.0 |
| 20260903235536 | 97 | 114 | 5.0 | 16.0 | 0.00 | 0.00 | 0.00 | 37 | 1010.0 |
| 20260903235034 | 98 | 128 | 6.0 | 17.0 | 0.00 | 0.00 | 0.00 | 37 | 1009.9 |
| 20260903234600 | 98 | 144 | 8.0 | 17.0 | 0.00 | 0.00 | 0.00 | 37 | 1009.9 |
| 20260903234033 | 98 | 107 | 6.0 | 14.0 | 0.00 | 0.00 | 0.00 | 36 | 1009.9 |
| 20260903233538 | 98 | 112 | 7.0 | 17.0 | 0.00 | 0.00 | 0.00 | 37 | 1009.9 |
| 20260903233102 | 99 | 154 | 8.0 | 17.0 | 0.00 | 0.00 | 0.00 | 36 | 1009.8 |
| 20260903232533 | 99 | 149 | 9.0 | 16.0 | 0.00 | 0.00 | 0.00 | 36 | 1009.8 |
| 20260903232033 | 99 | 135 | 4.0 | 16.0 | 0.00 | 0.00 | 0.00 | 36 | 1009.8 |
| 20260903231558 | 99 | 122 | 7.0 | 16.0 | 0.00 | 0.00 | 0.00 | 36 | 1009.9 |
| 20260903231032 | 99 | 123 | 10.0 | 18.0 | 0.00 | 0.00 | 0.00 | 35 | 1009.9 |
| 20260903230532 | 99 | 131 | 7.0 | 18.0 | 0.00 | 0.00 | 0.00 | 34 | 1009.9 |
| 20260903230100 | 99 | 94 | 9.0 | 17.0 | 0.00 | 0.00 | 0.00 | 35 | 1009.8 |
| 20260903225536 | 99 | 122 | 9.0 | 17.0 | 0.00 | 0.00 | 0.00 | 35 | 1009.8 |
| 20260903225033 | 100 | 97 | 6.0 | 16.0 | 0.00 | 0.00 | 0.00 | 35 | 1009.8 |
| 20260903224556 | 100 | 135 | 7.0 | 17.0 | 0.00 | 0.00 | 0.00 | 34 | 1009.7 |
| 20260903224033 | 100 | 118 | 7.0 | 17.0 | 0.00 | 0.00 | 0.00 | 34 | 1009.7 |
| 20260903223538 | 100 | 107 | 6.0 | 14.0 | 0.00 | 0.00 | 0.00 | 33 | 1009.7 |
| 20260903223101 | 101 | 166 | 6.0 | 14.0 | 0.00 | 0.00 | 0.00 | 35 | 1010.0 |
| 20260903222533 | 101 | 116 | 6.0 | 14.0 | 0.00 | 0.00 | 0.00 | 34 | 1010.0 |
| 20260903222035 | 102 | 112 | 8.0 | 15.0 | 0.00 | 0.00 | 0.00 | 31 | 1010.0 |
| 20260903221557 | 103 | 126 | 7.0 | 15.0 | 0.00 | 0.00 | 0.00 | 31 | 1010.0 |
| 20260903221032 | 104 | 140 | 6.0 | 15.0 | 0.00 | 0.00 | 0.00 | 32 | 1010.1 |
| 20260903220532 | 104 | 69 | 9.0 | 16.0 | 0.00 | 0.00 | 0.00 | 31 | 1010.1 |
| 20260903220056 | 104 | 110 | 7.0 | 16.0 | 0.00 | 0.00 | 0.00 | 31 | 1010.1 |
| 20260903215533 | 105 | 105 | 8.0 | 15.0 | 0.00 | 0.00 | 0.00 | 31 | 1010.2 |
| 20260903215036 | 105 | 95 | 4.0 | 12.0 | 0.00 | 0.00 | 0.00 | 33 | 1010.1 |
| 20260903214617 | 105 | 194 | 5.0 | 15.0 | 0.00 | 0.00 | 0.00 | 31 | 1010.1 |
| 20260903214034 | 106 | 110 | 5.0 | 15.0 | 0.00 | 0.00 | 0.00 | 31 | 1010.1 |
| 20260903213536 | 106 | 160 | 6.0 | 13.0 | 0.00 | 0.00 | 0.00 | 32 | 1010.2 |
| 20260903213059 | 106 | 123 | 5.0 | 14.0 | 0.00 | 0.00 | 0.00 | 32 | 1010.4 |
| 20260903212535 | 106 | 93 | 7.0 | 14.0 | 0.00 | 0.00 | 0.00 | 33 | 1010.4 |
| 20260903212034 | 106 | 99 | 4.0 | 12.0 | 0.00 | 0.00 | 0.00 | 32 | 1010.4 |
| 20260903211606 | 106 | 150 | 4.0 | 15.0 | 0.00 | 0.00 | 0.00 | 31 | 1010.6 |
| 20260903211036 | 106 | 143 | 6.0 | 15.0 | 0.00 | 0.00 | 0.00 | 32 | 1010.7 |
| 20260903210538 | 105 | 62 | 9.0 | 15.0 | 0.00 | 0.00 | 0.00 | 34 | 1010.6 |
| 20260903210056 | 105 | 137 | 5.0 | 20.0 | 0.00 | 0.00 | 0.00 | 32 | 1010.7 |
| 20260903205534 | 105 | 54 | 9.0 | 20.0 | 0.00 | 0.00 | 0.00 | 35 | 1010.6 |
| 20260903205034 | 105 | 103 | 9.0 | 17.0 | 0.00 | 0.00 | 0.00 | 35 | 1010.7 |
| 20260903204556 | 104 | 218 | 2.0 | 14.0 | 0.00 | 0.00 | 0.00 | 34 | 1010.8 |
| 20260903204033 | 104 | 76 | 6.0 | 15.0 | 0.00 | 0.00 | 0.00 | 36 | 1010.9 |
| 20260903203535 | 104 | 129 | 9.0 | 15.0 | 0.00 | 0.00 | 0.00 | 35 | 1011.0 |
| 20260903203102 | 104 | 68 | 8.0 | 16.0 | 0.00 | 0.00 | 0.00 | 37 | 1011.0 |
| 20260903202534 | 104 | 160 | 8.0 | 16.0 | 0.00 | 0.00 | 0.00 | 35 | 1011.1 |
| 20260903202034 | 104 | 97 | 10.0 | 15.0 | 0.00 | 0.00 | 0.00 | 37 | 1011.2 |
| 20260903201607 | 104 | 155 | 3.0 | 15.0 | 0.00 | 0.00 | 0.00 | 36 | 1011.2 |
| 20260903201033 | 104 | 169 | 7.0 | 16.0 | 0.00 | 0.00 | 0.00 | 36 | 1011.2 |
| 20260903200534 | 104 | 168 | 8.0 | 16.0 | 0.00 | 0.00 | 0.00 | 37 | 1011.3 |
| 20260903200100 | 103 | 146 | 6.0 | 16.0 | 0.00 | 0.00 | 0.00 | 37 | 1011.3 |
| 20260903195533 | 103 | 174 | 9.0 | 16.0 | 0.00 | 0.00 | 0.00 | 37 | 1011.4 |
| 20260903195034 | 103 | 128 | 6.0 | 16.0 | 0.00 | 0.00 | 0.00 | 39 | 1011.4 |
| 20260903194556 | 102 | 98 | 7.0 | 16.0 | 0.00 | 0.00 | 0.00 | 39 | 1011.4 |
| 20260903194035 | 102 | 99 | 9.0 | 16.0 | 0.00 | 0.00 | 0.00 | 40 | 1011.5 |
| 20260903193536 | 102 | 151 | 6.0 | 15.0 | 0.00 | 0.00 | 0.00 | 39 | 1011.6 |
| 20260903193058 | 102 | 84 | 8.0 | 15.0 | 0.00 | 0.00 | 0.00 | 38 | 1011.8 |
| 20260903192535 | 102 | 136 | 6.0 | 16.0 | 0.00 | 0.00 | 0.00 | 39 | 1012.0 |
| 20260903192033 | 102 | 116 | 5.0 | 16.0 | 0.00 | 0.00 | 0.00 | 39 | 1012.0 |
| 20260903191556 | 102 | 100 | 8.0 | 16.0 | 0.00 | 0.00 | 0.00 | 38 | 1012.1 |
| 20260903191033 | 103 | 176 | 6.0 | 15.0 | 0.00 | 0.00 | 0.00 | 37 | 1012.2 |
| 20260903190532 | 102 | 123 | 6.0 | 13.0 | 0.00 | 0.00 | 0.00 | 40 | 1012.2 |
| 20260903190055 | 102 | 120 | 3.0 | 14.0 | 0.00 | 0.00 | 0.00 | 40 | 1012.3 |
| 20260903185534 | 102 | 156 | 6.0 | 14.0 | 0.00 | 0.00 | 0.00 | 39 | 1012.4 |
| 20260903185033 | 101 | 154 | 7.0 | 14.0 | 0.00 | 0.00 | 0.00 | 41 | 1012.6 |
| 20260903184559 | 101 | 97 | 6.0 | 15.0 | 0.00 | 0.00 | 0.00 | 41 | 1012.6 |
| 20260903184036 | 101 | 267 | 4.0 | 16.0 | 0.00 | 0.00 | 0.00 | 41 | 1012.8 |
| 20260903183534 | 101 | 90 | 6.0 | 16.0 | 0.00 | 0.00 | 0.00 | 42 | 1012.9 |
| 20260903183057 | 101 | 132 | 7.0 | 14.0 | 0.00 | 0.00 | 0.00 | 42 | 1013.1 |
| 20260903182553 | 100 | 126 | 7.0 | 16.0 | 0.00 | 0.00 | 0.00 | 40 | 1013.1 |
| 20260903182036 | 100 | 151 | 8.0 | 16.0 | 0.00 | 0.00 | 0.00 | 41 | 1013.1 |
| 20260903181600 | 100 | 147 | 4.0 | 16.0 | 0.00 | 0.00 | 0.00 | 43 | 1013.2 |
| 20260903181034 | 100 | 121 | 8.0 | 16.0 | 0.00 | 0.00 | 0.00 | 44 | 1013.3 |
| 20260903180538 | 99 | 61 | 3.0 | 15.0 | 0.00 | 0.00 | 0.00 | 43 | 1013.4 |
| 20260903180056 | 98 | 136 | 6.0 | 15.0 | 0.00 | 0.00 | 0.00 | 46 | 1013.4 |
| 20260903175531 | 98 | 112 | 6.0 | 15.0 | 0.00 | 0.00 | 0.00 | 45 | 1013.5 |
| 20260903175038 | 98 | 143 | 4.0 | 15.0 | 0.00 | 0.00 | 0.00 | 44 | 1013.5 |
| 20260903174551 | 98 | 180 | 5.0 | 15.0 | 0.00 | 0.00 | 0.00 | 44 | 1013.5 |
| 20260903174035 | 98 | 144 | 6.0 | 14.0 | 0.00 | 0.00 | 0.00 | 47 | 1013.6 |
| 20260903173534 | 97 | 137 | 5.0 | 11.0 | 0.00 | 0.00 | 0.00 | 48 | 1013.7 |
| 20260903173059 | 97 | 122 | 4.0 | 13.0 | 0.00 | 0.00 | 0.00 | 48 | 1013.7 |
| 20260903172536 | 96 | 90 | 5.0 | 13.0 | 0.00 | 0.00 | 0.00 | 50 | 1013.8 |
| 20260903172033 | 96 | 154 | 4.0 | 13.0 | 0.00 | 0.00 | 0.00 | 50 | 1013.8 |
| 20260903171557 | 96 | 128 | 6.0 | 15.0 | 0.00 | 0.00 | 0.00 | 50 | 1014.0 |
| 20260903171033 | 96 | 113 | 6.0 | 15.0 | 0.00 | 0.00 | 0.00 | 52 | 1014.0 |
| 20260903170533 | 95 | 113 | 7.0 | 11.0 | 0.00 | 0.00 | 0.00 | 52 | 1014.0 |
| 20260903170103 | 94 | 234 | 4.0 | 11.0 | 0.00 | 0.00 | 0.00 | 54 | 1014.1 |
| 20260903165534 | 94 | 93 | 4.0 | 11.0 | 0.00 | 0.00 | 0.00 | 56 | 1014.1 |
| 20260903165036 | 93 | 153 | 2.0 | 13.0 | 0.00 | 0.00 | 0.00 | 57 | 1014.3 |
| 20260903164555 | 93 | 104 | 7.0 | 13.0 | 0.00 | 0.00 | 0.00 | 57 | 1014.2 |
| 20260903164033 | 92 | 84 | 5.0 | 11.0 | 0.00 | 0.00 | 0.00 | 59 | 1014.2 |
| 20260903163530 | 91 | 120 | 3.0 | 11.0 | 0.00 | 0.00 | 0.00 | 61 | 1014.4 |
| 20260903163059 | 90 | 137 | 6.0 | 11.0 | 0.00 | 0.00 | 0.00 | 62 | 1014.4 |
| 20260903162532 | 90 | 218 | 4.0 | 13.0 | 0.00 | 0.00 | 0.00 | 60 | 1014.4 |
| 20260903162033 | 90 | 274 | 7.0 | 13.0 | 0.00 | 0.00 | 0.00 | 62 | 1014.4 |
| 20260903161604 | 90 | 202 | 5.0 | 12.0 | 0.00 | 0.00 | 0.00 | 63 | 1014.4 |
| 20260903161036 | 90 | 157 | 5.0 | 12.0 | 0.00 | 0.00 | 0.00 | 64 | 1014.4 |
| 20260903160532 | 89 | 129 | 6.0 | 12.0 | 0.00 | 0.00 | 0.00 | 65 | 1014.4 |
| 20260903160059 | 88 | 117 | 4.0 | 12.0 | 0.00 | 0.00 | 0.00 | 67 | 1014.4 |
| 20260903155531 | 87 | 131 | 5.0 | 12.0 | 0.00 | 0.00 | 0.00 | 67 | 1014.4 |
| 20260903155031 | 87 | 154 | 2.0 | 10.0 | 0.00 | 0.00 | 0.00 | 70 | 1014.5 |
| 20260903154602 | 86 | 226 | 3.0 | 10.0 | 0.00 | 0.00 | 0.00 | 71 | 1014.5 |
| 20260903154036 | 85 | 184 | 3.0 | 8.0 | 0.00 | 0.00 | 0.00 | 72 | 1014.5 |
| 20260903153536 | 85 | 200 | 4.0 | 13.0 | 0.00 | 0.00 | 0.00 | 71 | 1014.4 |
| 20260903153116 | 86 | 145 | 5.0 | 13.0 | 0.00 | 0.00 | 0.00 | 70 | 1014.5 |
| 20260903152533 | 87 | 137 | 6.0 | 15.0 | 0.00 | 0.00 | 0.00 | 72 | 1014.6 |
| 20260903152033 | 86 | 180 | 3.0 | 15.0 | 0.00 | 0.00 | 0.00 | 72 | 1014.6 |
| 20260903151615 | 86 | 96 | 5.0 | 10.0 | 0.00 | 0.00 | 0.00 | 71 | 1014.5 |
| 20260903151034 | 85 | 162 | 2.0 | 7.0 | 0.00 | 0.00 | 0.00 | 75 | 1014.6 |
| 20260903150537 | 83 | 223 | 3.0 | 7.0 | 0.00 | 0.00 | 0.00 | 77 | 1014.6 |
| 20260903150109 | 83 | 202 | 3.0 | 10.0 | 0.00 | 0.00 | 0.00 | 77 | 1014.7 |
| 20260903145537 | 83 | 146 | 4.0 | 10.0 | 0.00 | 0.00 | 0.00 | 77 | 1014.6 |
| 20260903145031 | 83 | 160 | 4.0 | 9.0 | 0.00 | 0.00 | 0.00 | 77 | 1014.7 |
| 20260903144549 | 84 | 207 | 4.0 | 11.0 | 0.00 | 0.00 | 0.00 | 77 | 1014.6 |